This is the latest recevied weather packets stored in our database for station/object EB1BWO-10. If no packets are shown the sender has not sent any weather packets the latest 10 day(s).
| Time | Temp. | Humidity | Pressure | Rain* | Wind** | Luminosity | Snow |
|---|---|---|---|---|---|---|---|
| 1777678069 | 12.78° C | 96% | 952.2 hPa | - | - | - | - |
| 1777677169 | 12.78° C | 91% | 952.2 hPa | - | - | - | - |
| 1777676269 | 13.89° C | 91% | 952.1 hPa | - | - | - | - |
| 1777675368 | 13.89° C | 93% | 952.1 hPa | - | - | - | - |
| 1777674469 | 13.33° C | 94% | 952.3 hPa | - | - | - | - |
| 1777673569 | 13.33° C | 92% | 951.9 hPa | - | - | - | - |
| 1777672669 | 13.33° C | 93% | 952.2 hPa | - | - | - | - |
| 1777671769 | 13.33° C | 92% | 952.4 hPa | - | - | - | - |
| 1777670869 | 13.33° C | 92% | 952.6 hPa | - | - | - | - |
| 1777669968 | 13.89° C | 92% | 952.8 hPa | - | - | - | - |
| 1777669067 | 13.89° C | 92% | 952.9 hPa | - | - | - | - |
| 1777668167 | 13.89° C | 92% | 952.9 hPa | - | - | - | - |
| 1777667267 | 13.89° C | 91% | 952.7 hPa | - | - | - | - |
| 1777666367 | 13.89° C | 92% | 952.7 hPa | - | - | - | - |
| 1777665467 | 13.89° C | 92% | 952.9 hPa | - | - | - | - |
| 1777664567 | 14.44° C | 91% | 952.8 hPa | - | - | - | - |
| 1777663667 | 14.44° C | 92% | 952.8 hPa | - | - | - | - |
| 1777662767 | 14.44° C | 91% | 952.8 hPa | - | - | - | - |
| 1777660969 | 14.44° C | 89% | 952.8 hPa | - | - | - | - |
| 1777660069 | 15° C | 90% | 952.7 hPa | - | - | - | - |
| 1777659169 | 15° C | 91% | 952.8 hPa | - | - | - | - |
| 1777658269 | 13.89° C | 93% | 952.8 hPa | - | - | - | - |
| 1777657368 | 13.89° C | 95% | 952.7 hPa | - | - | - | - |
| 1777656469 | 14.44° C | 92% | 952.8 hPa | - | - | - | - |
| 1777655568 | 14.44° C | 92% | 953 hPa | - | - | - | - |
* Rain since midnight (hover to see other rain measurements)
** Current wind speed in m/s (hover to see current wind gust speed)